星链-32796 (STARLINK-32796)

导读 | 豆包AI

STARLINK-32796是美国SpaceX公司星链星座中的一颗卫星,于2025年1月21日发射。星链项目旨在近地轨道构建卫星互联网星座,为全球偏远、欠发达地区提供高速宽带网络服务,弥补地面网络覆盖盲区,截至2026年,SpaceX星链已获得监管批准,可部署规模达约15000颗卫星,持续推进组网进程,推动卫星互联网商用发展。

基本信息
目录编号:
62739
目录名称:
STARLINK-32796
国际标识:
2025-014E
轨道中心:
EARTH
卫星名称:
星链-32796
卫星全名:
星链-32796 (STARLINK-32796)
卫星状态:
在轨 (已飞行463 天)
发射日期:
2025-01-21 UTC
国别 :
美国 (US)
星等 :
--
轨道信息
数据来源 国际轨道数据
星历时间: 2026-04-29T21:44:23+0800
9小时前
查看轨道信息
半长轴: 6861.14km
偏心率: 0.0001318
轨道倾角: 42.998°
近地点辐角 265.945°
升交点赤经 226.648°
平近点角 94.126°
近地点: 482.098km
远地点: 483.908km
周期: 94.266分钟
每日圈数: 15.275954
详细信息
固有亮度:
5
最大亮度:
2.5
卫星平台:
Starlink V1.0
覆盖范围:
全球
运营商:
太空探索技术公司
运营商所在国:
美国
制造商(研发单位):
太空探索技术公司
制造商所在国:
美国
使用方式:
暂无
卫星简介
Starlink 计划是 SpaceX 推出的全球卫星互联网项目,通过发射低轨道卫星,为全球尤其是偏远地区提供高速、低延迟的互联网服务。自 2019 年起,Starlink 已部署数千颗卫星,旨在缩小全球数字鸿沟,推动互联网普及。该项目还为军事、航空等行业提供通信支持,带来广泛经济效益。
2D轨道图
3D轨道图
轨道高度分析图
轨道倾角分析图
轨道综合分析图
查看轨道综合分析图